Content
SEND FEEDBACK

Daily
Averages
Monthly
Summary
Mauritania

NOUADHIBOU, MAURITANIA


Home > Africa > Mauritania
Elevation: 10 feet     Latitude: 20 56N     Longitude: 017 02W

WEATHER
 
SELECT A DAY
Number of Records: 115,280;   Date Range: 7/1/96 - 4/15/14
 
SHARE

PRINT THIS DATA

[ ← Previous Day ]
WEATHER ALMANAC - SEPTEMBER 18, 2013
[ Next Day → ]
[ °C ]   °F
Weather ElementAverageHighLow
Temperature82.1 °F93.2 °F (1:00 pm)76 °F (6:00 am)
Dewpoint68.5 °F71.6 °F (11:00 am)62.6 °F (11:00 pm)
Humidity62.7 %78 % (1:00 am)36 % (12:00 pm)
Barometer29.97 in30.04 in (12:00 pm)29.92 in (4:00 pm)
Wind Speed12.9 mph17.3 mph (4:00 pm)
Weather ElementAverage
Visibility5 mi
Wind DirectionWSW (249.7 °)

Weather ElementTotal
Precipitation---
Cooling Degree Days19.6 (Base 65)
Growing Degree Days34.6 (Base 50)
Averaged from 30 records on September 18, 2013
WEATHER CONDITIONS BREAKOUT
WIND DIRECTION BREAKOUT
WEATHER BY HOUR - SEPTEMBER 18, 2013
[ °C ]   °F
Local TimeTemperatureDewpointHumidityBarometerVisibilityWind DirectionWind SpeedGust SpeedPrecipitationEventsConditions
12:00 AM78.8 °F69.8 °F74 %30.01 in5.0 miNorth (350°)13.8 mph
1:00 AM77.0 °F69.8 °F78 %30.01 in5.0 miNorth (360°)13.8 mph
2:00 AM77.0 °F68.0 °F74 %29.98 in5.0 miNorth (350°)11.5 mph
3:00 AM77.0 °F68.0 °F68 %29.99 in5.0 miNorth12.7 mphPartly Cloudy
3:00 AM77.0 °F68.0 °F74 %29.98 in5.0 miNorth (360°)12.7 mph
4:00 AM77.0 °F66.2 °F69 %29.95 in5.0 miNorth (360°)11.5 mph
5:00 AM77.0 °F66.2 °F69 %29.95 in5.0 miNorth (360°)11.5 mph
6:00 AM77.0 °F68.0 °F74 %29.98 in5.0 miNorth (360°)10.4 mph
6:00 AM76.0 °F69.0 °F72 %29.99 in5.0 miNorth11.5 mphPartly Cloudy
7:00 AM77.0 °F68.0 °F74 %29.98 in5.0 miNorth (360°)10.4 mph
8:00 AM78.8 °F69.8 °F74 %29.98 in5.0 miNorth (360°)9.2 mph
9:00 AM80.6 °F69.8 °F70 %30.01 in5.0 miNorth (10°)12.7 mph
10:00 AM82.4 °F69.8 °F66 %30.01 in5.0 miNorth (10°)13.8 mph
11:00 AM86.0 °F71.6 °F62 %30.01 in5.0 miNorth (10°)13.8 mph
12:00 PM89.6 °F68.0 °F49 %30.01 in5.0 miNorth (10°)13.8 mph
12:00 PM90.0 °F66.0 °F36 %30.04 in5.0 miNorth13.8 mphClear
1:00 PM93.2 °F68.0 °F44 %30.01 in5.0 miNorth (10°)11.5 mph
2:00 PM89.6 °F71.6 °F55 %29.95 in5.0 miNW (310°)11.5 mph
3:00 PM87.0 °F71.0 °F50 %29.96 in5.0 miNW (310°)15.0 mph
3:00 PM86.0 °F71.6 °F62 %29.95 in5.0 miNW (310°)15.0 mphPartly Cloudy
4:00 PM86.0 °F71.6 °F62 %29.92 in5.0 miNW (310°)17.3 mphPartly Cloudy
5:00 PM84.2 °F71.6 °F66 %29.92 in5.0 miNW (310°)15.0 mphPartly Cloudy
6:00 PM82.4 °F69.8 °F66 %29.92 in5.0 miNW (320°)15.0 mphPartly Cloudy
6:00 PM83.0 °F69.0 °F54 %29.93 in5.0 miNW (320°)13.8 mphPartly Cloudy
7:00 PM82.4 °F68.0 °F62 %29.92 in5.0 miNW (320°)15.0 mphPartly Cloudy
8:00 PM82.4 °F68.0 °F62 %29.95 in5.0 miNNW (330°)12.7 mph
9:00 PM82.0 °F66.0 °F50 %29.97 in5.0 miNNW (340°)11.5 mphClear
9:00 PM82.4 °F66.2 °F58 %29.95 in5.0 miNNW (340°)12.7 mph
10:00 PM82.4 °F64.4 °F54 %29.98 in5.0 miNorth (350°)12.7 mph
11:00 PM80.6 °F62.6 °F54 %29.98 in5.0 miNorth (350°)12.7 mph
Hourly data recorded from GQPP, located 0.33 miles away from Nouadhibou, Mauritania







STORIES FROM OUR PARTNERS